Volver al catálogo

STARLINK-33790

ActivoComunicacionesVLEO
NORAD 64029·PAYLOAD·🇺🇸 United States

Lanzado May 16, 2025 desde Vandenberg Space Force Base

Loading…

Próximos Pases (próximas 24 horas)

TLE

ActualizadoSource: CelesTrak SupGP

Época: Sep 15, 2026, 02:15 UTC

1 64029C 25102H   26258.09423611  .00080378  00000+0  27966-2 0  2585
2 64029  70.0010 355.1159 0003711 265.1946 242.0194 15.29530926    10

Sigue STARLINK-33790 en tiempo real con AllMySat

Download on the App Store